DW5249 Weather Reports


time (UTC)temp
C
wind
direction
speed
KPH
gust
KPH
rain 1hr
cm
rain 24hr
cm
rain mn
cm
humidity
%
barometer
mb
20260906123047 25 258 0.0 11.3 0.00 0.08 0.08 92 1010.4
20260906122528 25 265 4.8 11.3 0.00 0.08 0.08 92 1010.4
20260906122028 25 285 0.0 4.8 0.00 0.08 0.08 92 1010.4
20260906121527 25 260 0.0 4.8 0.00 0.08 0.08 92 1010.3
20260906121026 25 261 1.6 4.8 0.00 0.08 0.08 91 1010.2
20260906120526 25 242 1.6 4.8 0.00 0.08 0.08 91 1010.1
20260906120024 25 242 1.6 4.8 0.00 0.08 0.08 91 1010.2
20260906115524 25 241 1.6 3.2 0.00 0.08 0.08 91 1010.2
20260906115023 25 240 1.6 3.2 0.00 0.08 0.08 91 1010.3
20260906114523 25 242 1.6 3.2 0.00 0.08 0.08 91 1010.2
20260906114021 25 242 0.0 4.8 0.00 0.08 0.08 91 1010.1
20260906113522 25 243 1.6 4.8 0.00 0.08 0.08 91 1010.0
20260906113021 25 265 1.6 3.2 0.00 0.08 0.08 91 1010.0
20260906112524 25 265 0.0 1.6 0.00 0.08 0.08 91 1010.1
20260906112019 25 265 0.0 4.8 0.00 0.08 0.08 91 1010.0
20260906111521 25 254 0.0 4.8 0.00 0.08 0.08 91 1009.9
20260906111017 25 256 1.6 4.8 0.00 0.08 0.08 91 1009.8
20260906110517 25 259 0.0 4.8 0.00 0.08 0.08 91 1009.8
20260906110017 25 259 1.6 4.8 0.00 0.08 0.08 91 1009.8
20260906105515 25 276 0.0 3.2 0.00 0.08 0.08 91 1009.7
20260906105016 25 276 0.0 4.8 0.00 0.08 0.08 91 1009.5
20260906104515 25 276 1.6 4.8 0.00 0.08 0.08 91 1009.4
20260906104015 25 276 1.6 4.8 0.00 0.08 0.08 91 1009.3
20260906103514 25 276 1.6 4.8 0.00 0.08 0.08 91 1009.3
20260906103014 25 276 1.6 4.8 0.00 0.08 0.08 91 1009.1
20260906102515 25 276 1.6 4.8 0.00 0.08 0.08 90 1009.1
20260906102014 25 276 1.6 4.8 0.00 0.08 0.08 90 1009.0
20260906101524 25 276 1.6 4.8 0.03 0.08 0.08 90 1009.0
20260906101013 25 276 0.0 3.2 0.05 0.08 0.08 90 1009.0
20260906100513 25 276 0.0 3.2 0.08 0.08 0.08 90 1009.1
20260906100013 25 276 0.0 3.2 0.08 0.08 0.08 90 1009.1
20260906095516 25 276 0.0 4.8 0.08 0.08 0.08 90 1009.1
20260906095012 25 276 0.0 4.8 0.08 0.08 0.08 90 1009.1
20260906094513 25 276 0.0 3.2 0.08 0.08 0.08 90 1009.0
20260906094012 25 276 0.0 4.8 0.08 0.08 0.08 90 1009.1
20260906093515 25 276 1.6 4.8 0.08 0.08 0.08 90 1009.0
20260906093020 25 292 0.0 3.2 0.08 0.08 0.08 90 1009.0
20260906092511 25 292 0.0 9.7 0.08 0.08 0.08 90 1009.0
20260906092015 25 316 1.6 12.9 0.08 0.08 0.08 90 1008.9
20260906091511 25 263 4.8 12.9 0.05 0.05 0.05 90 1008.9
20260906091013 25 281 4.8 17.7 0.03 0.03 0.03 90 1009.0
20260906090511 25 290 4.8 17.7 0.00 0.00 0.00 90 1009.1
20260906090032 25 277 3.2 9.7 0.00 0.00 0.00 90 1009.1
20260906085510 25 300 0.0 8.0 0.00 0.00 0.00 90 1008.9
20260906085010 25 279 1.6 8.0 0.00 0.00 0.00 90 1009.0
20260906084511 25 252 3.2 6.4 0.00 0.00 0.00 90 1009.0
20260906084009 25 275 1.6 4.8 0.00 0.00 0.00 90 1009.0
20260906083509 25 275 1.6 4.8 0.00 0.00 0.00 90 1008.9
20260906083009 25 275 1.6 3.2 0.00 0.00 0.00 90 1008.8
20260906082509 25 275 1.6 3.2 0.00 0.00 0.00 90 1008.8
20260906082010 25 275 1.6 3.2 0.00 0.00 0.00 90 1008.8
20260906081511 25 275 1.6 3.2 0.00 0.00 0.00 90 1008.8
20260906081007 25 275 1.6 4.8 0.00 0.00 0.00 90 1008.9
20260906080507 25 275 1.6 4.8 0.00 0.00 0.00 90 1008.9
20260906080007 25 275 1.6 4.8 0.00 0.00 0.00 90 1008.9
20260906075506 25 275 1.6 4.8 0.00 0.00 0.00 90 1008.9
20260906075008 25 275 0.0 4.8 0.00 0.00 0.00 89 1008.9
20260906074506 25 275 1.6 6.4 0.00 0.00 0.00 89 1008.8
20260906074005 25 231 4.8 9.7 0.00 0.00 0.00 89 1008.8
20260906073507 25 247 4.8 9.7 0.00 0.00 0.00 89 1008.8
20260906073004 25 250 3.2 8.0 0.00 0.00 0.00 89 1008.9
20260906072504 25 234 1.6 6.4 0.00 0.00 0.00 89 1008.9
20260906072007 25 241 4.8 6.4 0.00 0.00 0.00 89 1009.0
20260906071503 25 265 3.2 8.0 0.00 0.00 0.00 89 1009.0
20260906071004 25 250 3.2 8.0 0.00 0.00 0.00 89 1008.9
20260906070502 25 244 3.2 6.4 0.00 0.00 0.00 89 1009.0
20260906070001 25 241 3.2 6.4 0.00 0.00 0.00 89 1009.1
20260906065503 25 253 1.6 4.8 0.00 0.00 0.00 89 1009.0
20260906065100 25 254 0.0 3.2 0.00 0.00 0.00 89 1009.1
20260906064605 25 254 1.6 3.2 0.00 0.00 0.00 88 1009.1
20260906064059 25 265 0.0 4.8 0.00 0.00 0.00 88 1009.0
20260906063558 25 261 1.6 6.4 0.00 0.00 0.00 88 1009.1
20260906063058 25 256 3.2 6.4 0.00 0.00 0.00 88 1009.1
20260906062556 25 254 3.2 8.0 0.00 0.00 0.00 88 1009.1
20260906062056 26 255 4.8 11.3 0.00 0.00 0.00 88 1009.2
20260906061556 26 255 4.8 11.3 0.00 0.00 0.00 88 1009.3
20260906061059 26 249 3.2 6.4 0.00 0.00 0.00 88 1009.2
20260906060555 26 250 3.2 6.4 0.00 0.00 0.00 88 1009.3
20260906060053 26 251 3.2 6.4 0.00 0.00 0.00 88 1009.5
20260906055553 26 243 1.6 6.4 0.00 0.00 0.00 88 1009.4
20260906055053 26 240 3.2 6.4 0.00 0.00 0.00 87 1009.6
20260906054552 26 237 3.2 4.8 0.00 0.00 0.00 87 1009.6
20260906054052 26 254 3.2 4.8 0.00 0.00 0.00 87 1009.6
20260906053552 26 244 3.2 4.8 0.00 0.00 0.00 87 1009.6
20260906053052 26 251 1.6 4.8 0.00 0.00 0.00 87 1009.7
20260906052553 26 250 0.0 4.8 0.00 0.00 0.00 87 1009.7
20260906052050 26 259 3.2 8.0 0.00 0.00 0.00 87 1009.6
20260906051600 26 243 3.2 8.0 0.00 0.00 0.00 87 1009.6
20260906051049 26 253 4.8 11.3 0.00 0.00 0.00 87 1009.5
20260906050548 26 252 4.8 11.3 0.00 0.00 0.00 87 1009.5
20260906045547 26 265 4.8 9.7 0.00 0.00 0.00 86 1009.4
20260906045046 26 252 1.6 4.8 0.00 0.00 0.00 86 1009.5
20260906044550 26 265 1.6 6.4 0.00 0.00 0.00 86 1009.6
20260906044049 26 261 3.2 8.0 0.00 0.00 0.00 86 1009.5
20260906043545 26 221 4.8 8.0 0.00 0.00 0.00 86 1009.6
20260906043052 26 257 4.8 8.0 0.00 0.00 0.00 86 1009.6
20260906042544 26 250 3.2 8.0 0.00 0.00 0.00 86 1009.6
20260906042043 26 242 4.8 6.4 0.00 0.00 0.00 86 1009.6
20260906041543 26 219 3.2 12.9 0.00 0.00 0.00 85 1009.6
20260906041043 26 254 3.2 12.9 0.00 0.00 0.00 85 1009.6
20260906040543 27 252 6.4 11.3 0.00 0.00 0.00 85 1009.6
20260906040041 27 238 3.2 9.7 0.00 0.00 0.00 85 1009.5
20260906035544 27 269 4.8 11.3 0.00 0.00 0.00 85 1009.6
20260906035042 27 237 3.2 11.3 0.00 0.00 0.00 85 1009.6
20260906034554 27 233 4.8 11.3 0.00 0.00 0.00 85 1009.7
20260906034039 27 240 3.2 9.7 0.00 0.00 0.00 85 1009.9
20260906033539 27 256 4.8 9.7 0.00 0.00 0.00 85 1009.9
20260906033040 27 245 4.8 9.7 0.00 0.00 0.00 85 1010.0
20260906032539 27 257 1.6 6.4 0.00 0.00 0.00 85 1010.0
20260906032039 27 249 3.2 8.0 0.00 0.00 0.00 85 1010.2
20260906031546 27 234 4.8 8.0 0.00 0.00 0.00 86 1010.2
20260906031041 27 265 3.2 6.4 0.00 0.00 0.00 86 1010.2
20260906030539 27 261 3.2 6.4 0.00 0.00 0.00 86 1010.2
20260906030039 27 263 1.6 6.4 0.00 0.00 0.00 86 1010.3
20260906025538 27 235 3.2 6.4 0.00 0.00 0.00 86 1010.3
20260906025039 27 250 1.6 4.8 0.00 0.00 0.00 86 1010.4
20260906024538 27 262 1.6 6.4 0.00 0.00 0.00 86 1010.4
20260906024039 27 256 1.6 12.9 0.00 0.00 0.00 86 1010.2
20260906023538 27 245 4.8 12.9 0.00 0.00 0.00 86 1010.1
20260906023037 27 265 3.2 4.8 0.00 0.00 0.00 86 1010.2
20260906022537 27 242 1.6 4.8 0.00 0.00 0.00 86 1010.3
20260906022038 27 242 1.6 4.8 0.00 0.00 0.00 86 1010.3
20260906021538 27 245 1.6 4.8 0.00 0.00 0.00 86 1010.3
20260906021041 27 244 0.0 1.6 0.00 0.00 0.00 86 1010.2
20260906020539 27 244 0.0 4.8 0.00 0.00 0.00 85 1010.2
20260906020037 27 244 1.6 4.8 0.00 0.00 0.00 85 1010.1
20260906015536 27 242 0.0 0.0 0.00 0.00 0.00 85 1009.9
20260906015036 27 242 0.0 3.2 0.00 0.00 0.00 85 1009.8
20260906014536 27 242 1.6 3.2 0.00 0.00 0.00 85 1009.8
20260906014036 27 242 0.0 0.0 0.00 0.00 0.00 84 1009.8
20260906013537 27 242 0.0 0.0 0.00 0.00 0.00 84 1009.6
20260906013054 27 242 0.0 0.0 0.00 0.00 0.00 83 1009.6
20260906012534 27 242 0.0 0.0 0.00 0.00 0.00 83 1009.4
20260906012034 27 242 0.0 0.0 0.00 0.00 0.00 82 1009.5
20260906011541 28 242 0.0 0.0 0.00 0.00 0.00 82 1009.3
20260906011035 28 242 0.0 0.0 0.00 0.00 0.00 82 1009.3
20260906010535 28 242 0.0 0.0 0.00 0.00 0.00 81 1009.2
20260906010034 28 242 0.0 0.0 0.00 0.00 0.00 81 1009.1
20260906005534 28 242 0.0 0.0 0.00 0.00 0.00 81 1009.1
20260906005034 28 242 0.0 0.0 0.00 0.00 0.00 81 1009.0
20260906004533 28 242 0.0 0.0 0.00 0.00 0.00 81 1008.9
20260906004033 28 242 0.0 0.0 0.00 0.00 0.00 80 1008.9
20260906003533 28 242 0.0 0.0 0.00 0.00 0.00 80 1008.8
20260906003036 29 242 0.0 1.6 0.00 0.00 0.00 79 1008.9
20260906002532 29 242 0.0 0.0 0.00 0.00 0.00 79 1008.8
20260906002036 29 242 0.0 0.0 0.00 0.00 0.00 79 1008.7
20260906001532 30 242 0.0 1.6 0.00 0.00 0.00 78 1008.7
20260906001034 30 242 0.0 1.6 0.00 0.00 0.00 79 1008.5
20260906000532 30 242 0.0 0.0 0.00 0.00 0.00 78 1008.6
20260906000033 30 242 0.0 0.0 0.00 0.00 0.00 77 1008.6
20260905235532 30 242 0.0 0.0 0.00 0.00 0.00 76 1008.5
20260905235032 30 242 0.0 0.0 0.00 0.00 0.00 76 1008.5
20260905234532 31 242 0.0 0.0 0.00 0.00 0.00 76 1008.6
20260905234031 31 242 0.0 0.0 0.00 0.00 0.00 75 1008.4
20260905233532 31 242 0.0 0.0 0.00 0.00 0.00 75 1008.5
20260905233039 31 242 0.0 0.0 0.00 0.00 0.00 75 1008.6
20260905232531 31 242 0.0 0.0 0.00 0.00 0.00 75 1008.6
20260905232030 31 242 0.0 1.6 0.00 0.00 0.00 74 1008.6
20260905231531 31 242 0.0 3.2 0.00 0.00 0.00 73 1008.6
20260905231028 31 242 0.0 4.8 0.00 0.00 0.00 72 1008.7
20260905230528 31 257 0.0 6.4 0.00 0.00 0.00 72 1008.7
20260905230027 31 255 3.2 6.4 0.00 0.00 0.00 73 1008.8
20260905225526 31 254 1.6 4.8 0.00 0.00 0.00 74 1008.9
20260905225026 31 254 1.6 3.2 0.00 0.00 0.00 74 1008.9
20260905224525 31 246 0.0 3.2 0.00 0.00 0.00 77 1008.9
20260905224024 31 246 0.0 0.0 0.00 0.00 0.00 79 1009.0
20260905223524 31 246 0.0 0.0 0.00 0.00 0.00 77 1009.0
20260905223024 31 246 0.0 3.2 0.00 0.00 0.00 76 1009.0
20260905222528 31 246 0.0 3.2 0.00 0.00 0.00 74 1009.1
20260905222024 31 246 1.6 4.8 0.00 0.00 0.00 74 1009.2
20260905221523 31 244 0.0 4.8 0.00 0.00 0.00 73 1009.1
20260905221025 31 237 1.6 4.8 0.00 0.00 0.00 72 1009.1
20260905220523 31 252 1.6 3.2 0.00 0.00 0.00 72 1009.1
20260905220023 31 252 0.0 9.7 0.00 0.00 0.00 73 1009.2
20260905215526 31 252 1.6 14.5 0.00 0.00 0.00 72 1009.2
20260905215023 31 264 8.0 14.5 0.00 0.00 0.00 71 1009.1
20260905214526 31 274 0.0 8.0 0.00 0.00 0.00 70 1009.1
20260905214022 31 283 3.2 9.7 0.00 0.00 0.00 69 1009.1
20260905213523 31 240 0.0 14.5 0.00 0.00 0.00 69 1009.2
20260905213022 32 259 8.0 14.5 0.00 0.00 0.00 67 1009.2
20260905212521 32 272 3.2 8.0 0.00 0.00 0.00 68 1009.2
20260905212020 32 263 0.0 6.4 0.00 0.00 0.00 68 1009.2
20260905211520 31 252 3.2 9.7 0.00 0.00 0.00 69 1009.3
20260905211021 31 272 3.2 9.7 0.00 0.00 0.00 69 1009.4
20260905210521 32 273 1.6 8.0 0.00 0.00 0.00 67 1009.4
20260905210034 32 267 1.6 11.3 0.00 0.00 0.00 66 1009.3
20260905205520 32 221 4.8 11.3 0.00 0.00 0.00 68 1009.2
20260905205020 32 269 3.2 11.3 0.00 0.00 0.00 66 1009.3
20260905204520 32 265 4.8 12.9 0.00 0.00 0.00 67 1009.2
20260905204018 32 229 8.0 12.9 0.00 0.00 0.00 65 1009.2
20260905203518 32 229 4.8 12.9 0.00 0.00 0.00 67 1009.1
20260905203020 32 227 4.8 14.5 0.00 0.00 0.00 68 1009.1
20260905202618 32 262 9.7 19.3 0.00 0.00 0.00 66 1009.1
20260905202021 32 237 3.2 12.9 0.00 0.00 0.00 66 1009.1
20260905201517 32 247 1.6 12.9 0.00 0.00 0.00 67 1009.1
20260905201016 32 240 1.6 12.9 0.00 0.00 0.00 67 1009.2
20260905200515 32 271 4.8 17.7 0.00 0.00 0.00 67 1009.3
20260905200022 32 234 8.0 17.7 0.00 0.00 0.00 67 1009.3
20260905195514 32 247 4.8 14.5 0.00 0.13 0.00 67 1009.3
20260905195014 32 265 4.8 14.5 0.00 0.13 0.00 68 1009.3
20260905194513 32 271 6.4 12.9 0.00 0.13 0.00 69 1009.4
20260905194012 32 277 1.6 16.1 0.00 0.13 0.00 70 1009.6
20260905193511 32 276 9.7 16.1 0.00 0.13 0.00 70 1009.7
20260905193010 32 236 4.8 14.5 0.00 0.13 0.00 70 1009.8
20260905192509 32 272 9.7 19.3 0.00 0.13 0.00 70 1009.9
20260905192009 32 271 8.0 19.3 0.00 0.13 0.00 69 1010.0
20260905191509 32 289 4.8 11.3 0.00 0.13 0.00 70 1010.0
20260905191009 32 256 3.2 12.9 0.00 0.13 0.00 71 1010.0
20260905190508 32 282 6.4 12.9 0.00 0.13 0.00 69 1010.0
20260905190009 32 234 6.4 12.9 0.00 0.13 0.00 72 1010.0
20260905185506 32 265 3.2 9.7 0.00 0.84 0.00 70 1010.2
20260905185010 32 286 3.2 16.1 0.00 0.84 0.00 69 1010.2
20260905184509 31 273 4.8 16.1 0.00 0.84 0.00 70 1010.3
20260905184004 31 286 3.2 20.9 0.00 0.84 0.00 72 1010.4
20260905183504 32 319 4.8 20.9 0.00 0.84 0.00 71 1010.4
20260905183005 32 243 4.8 11.3 0.00 0.84 0.00 70 1010.5
20260905182504 32 29 1.6 14.5 0.00 0.84 0.00 72 1010.5
20260905182002 32 261 6.4 16.1 0.00 0.84 0.00 72 1010.7
20260905181501 31 271 9.7 16.1 0.00 0.84 0.00 73 1010.6
20260905181100 31 254 8.0 12.9 0.00 0.84 0.00 74 1010.6
20260905180559 31 269 3.2 12.9 0.00 0.84 0.00 75 1010.8
20260905180058 30 277 3.2 12.9 0.00 0.84 0.00 74 1010.8
20260905175558 31 267 3.2 8.0 0.00 0.84 0.00 78 1010.8
20260905175058 30 281 0.0 6.4 0.00 0.84 0.00 75 1011.0
20260905174604 31 281 1.6 12.9 0.00 0.84 0.00 75 1011.0
20260905174055 31 290 0.0 12.9 0.00 0.84 0.00 76 1011.0
20260905173555 31 270 3.2 12.9 0.00 0.84 0.00 75 1011.1
20260905173054 30 227 6.4 14.5 0.00 0.84 0.00 76 1011.2
20260905172555 30 255 3.2 14.5 0.00 0.84 0.00 77 1011.3
20260905172054 30 235 3.2 11.3 0.00 0.84 0.00 80 1011.5
20260905171619 30 277 3.2 9.7 0.00 0.84 0.00 77 1011.6
20260905171053 30 273 1.6 4.8 0.00 0.84 0.00 77 1011.6
20260905170553 30 288 1.6 12.9 0.00 0.84 0.00 78 1011.7
20260905165551 30 255 6.4 16.1 0.00 0.94 0.00 78 1011.8
20260905165050 30 239 4.8 12.9 0.00 0.94 0.00 79 1011.9
20260905164551 29 268 8.0 12.9 0.00 0.94 0.00 82 1012.0
20260905164047 29 237 3.2 6.4 0.00 0.94 0.00 82 1012.1
20260905163547 28 248 0.0 8.0 0.00 0.94 0.00 82 1012.2
20260905163053 28 232 4.8 8.0 0.00 0.94 0.00 82 1012.3
20260905162548 28 273 0.0 12.9 0.00 0.94 0.00 83 1012.4
20260905162046 28 273 3.2 12.9 0.00 0.94 0.00 82 1012.4
20260905161546 28 235 3.2 9.7 0.00 0.94 0.00 82 1012.5
20260905161046 28 317 1.6 6.4 0.00 0.94 0.00 84 1012.6
20260905160544 28 303 1.6 6.4 0.00 0.94 0.00 82 1012.7
20260905160044 28 329 1.6 6.4 0.00 0.94 0.00 84 1012.8
20260905155543 28 278 1.6 6.4 0.00 0.94 0.00 85 1012.9
20260905155041 28 225 4.8 6.4 0.00 0.94 0.00 87 1012.9
20260905154549 27 290 0.0 3.2 0.00 0.94 0.00 86 1013.0
20260905154041 27 291 0.0 3.2 0.00 0.94 0.00 86 1013.0
20260905153540 27 290 0.0 3.2 0.00 0.94 0.00 87 1013.0
20260905153039 27 290 0.0 6.4 0.00 0.94 0.00 87 1013.1
20260905152539 27 290 3.2 12.9 0.00 0.94 0.00 87 1013.1
20260905152039 27 272 8.0 12.9 0.00 0.94 0.00 87 1013.1
20260905151539 27 260 1.6 12.9 0.00 0.94 0.00 87 1013.2
20260905151038 27 310 3.2 12.9 0.00 0.94 0.00 88 1013.2
20260905150536 26 277 3.2 12.9 0.00 0.94 0.00 89 1013.2
20260905150042 26 257 0.0 6.4 0.00 0.94 0.00 89 1013.2
20260905145538 26 281 1.6 12.9 0.00 0.94 0.00 89 1013.1
20260905145035 26 245 4.8 16.1 0.00 0.94 0.00 90 1013.0
20260905144537 26 236 4.8 11.3 0.00 0.94 0.00 90 1013.0
20260905144032 26 329 1.6 12.9 0.00 0.94 0.00 91 1013.0
20260905143532 26 270 4.8 11.3 0.00 0.94 0.00 91 1013.1
20260905143031 26 255 0.0 6.4 0.00 0.94 0.00 92 1013.2
20260905142532 25 261 1.6 6.4 0.00 0.94 0.00 92 1013.2
20260905142029 25 267 3.2 14.5 0.00 0.94 0.00 92 1013.2
20260905141530 25 264 8.0 14.5 0.00 0.94 0.00 92 1013.2
20260905141028 25 254 0.0 6.4 0.00 0.94 0.00 93 1013.2
20260905140530 25 253 1.6 6.4 0.00 0.94 0.00 93 1013.1
20260905140029 25 290 0.0 3.2 0.00 0.94 0.00 93 1013.2
20260905135527 25 289 0.0 4.8 0.00 0.94 0.00 93 1013.2
20260905135027 25 289 1.6 8.0 0.00 0.94 0.00 93 1013.1
20260905134526 25 275 1.6 11.3 0.00 0.94 0.00 93 1013.0
20260905134025 25 288 1.6 11.3 0.00 0.94 0.00 93 1013.0
20260905133524 25 250 1.6 8.0 0.00 0.94 0.00 94 1013.0
20260905133023 25 269 3.2 9.7 0.00 0.94 0.00 93 1012.8
20260905132524 25 264 3.2 8.0 0.00 0.94 0.00 94 1012.8
20260905132023 24 260 0.0 6.4 0.00 0.94 0.00 94 1012.8
20260905131533 24 300 0.0 8.0 0.00 0.94 0.00 93 1012.9
20260905131024 24 261 1.6 8.0 0.00 0.94 0.00 94 1012.8
20260905130521 24 254 0.0 8.0 0.00 0.94 0.00 94 1012.8
20260905130021 24 259 1.6 11.3 0.00 0.94 0.00 94 1012.9
20260905125521 24 267 6.4 11.3 0.00 0.94 0.00 93 1012.9
20260905125023 24 243 3.2 8.0 0.00 0.94 0.00 94 1012.9
20260905124519 24 260 1.6 6.4 0.00 0.94 0.00 93 1012.9
20260905124018 23 258 1.6 6.4 0.00 0.94 0.00 94 1012.8
20260905123517 23 239 1.6 6.4 0.00 0.94 0.00 94 1012.8